Location: Oberkirch
(48.5323°N, 8.0787°E)
Time: 16:52:22
(UTC+00:00)

SL-24 R/B - RUBIN 2 - Pass Details

Date: 15 February 2026
Orbit: 603 x 984 km, 64.6° (Epoch: 8 March)

Event Time Altitude Azimuth Distance (km) Brightness Sun altitude
Exits shadow 04:32:16 17° 337° (NNW) 1,615 5.5 -20.9°
Drops below altitude 10° 04:35:03 10° 16° (NNE) 1,996 6.4 -20.5°
Sets 04:37:59 0° 37° (NE) 2,877 7.6 -20.0°
